This is the latest recevied weather packets stored in our database for station/object K0CPM-2. If no packets are shown the sender has not sent any weather packets the latest 10 day(s).
| Time | Temp. | Humidity | Pressure | Rain* | Wind** | Luminosity | Snow |
|---|---|---|---|---|---|---|---|
| 1788577205 | 27.22° C | 84% | 1010.8 hPa | 0 mm | - | - | - |
| 1788576302 | 27.78° C | 83% | 1010.8 hPa | 0 mm | - | - | - |
| 1788575401 | 27.78° C | 82% | 1010.8 hPa | 0 mm | - | - | - |
| 1788574561 | 27.78° C | 81% | 1010.7 hPa | 0 mm | - | - | - |
| 1788573661 | 28.33° C | 80% | 1010.5 hPa | 0 mm | - | - | - |
| 1788572760 | 28.33° C | 83% | 1010.5 hPa | 0 mm | - | - | - |
| 1788571859 | 28.33° C | 85% | 1010.4 hPa | 0 mm | - | - | - |
| 1788570977 | 27.78° C | 85% | 1010.3 hPa | 0 mm | - | - | - |
| 1788570059 | 27.78° C | 84% | 1010.3 hPa | 0 mm | - | - | - |
| 1788569158 | 28.33° C | 83% | 1010.3 hPa | 0 mm | - | - | - |
| 1788568259 | 28.89° C | 82% | 1010 hPa | 0 mm | - | - | - |
| 1788567368 | 29.44° C | 80% | 1010.3 hPa | 0 mm | - | - | - |
| 1788566460 | 30° C | 76% | 1010.4 hPa | 0 mm | - | - | - |
| 1788565556 | 30° C | 75% | 1010.2 hPa | 0 mm | - | - | - |
| 1788564665 | 30.56° C | 75% | 1010 hPa | 0 mm | - | - | - |
| 1788563755 | 31.11° C | 75% | 1009.9 hPa | 0 mm | - | - | - |
| 1788562854 | 31.67° C | 71% | 1010 hPa | 0 mm | - | - | - |
| 1788561953 | 32.22° C | 69% | 1009.8 hPa | 0 mm | - | - | - |
| 1788561056 | 32.78° C | 68% | 1009.9 hPa | 0 mm | - | - | - |
| 1788560154 | 32.22° C | 69% | 1009.8 hPa | 0 mm | - | - | - |
| 1788559265 | 32.78° C | 67% | 1009.8 hPa | 0 mm | - | - | - |
| 1788558351 | 32.78° C | 68% | 1009.9 hPa | 0 mm | - | - | - |
| 1788557451 | 32.78° C | 69% | 1009.8 hPa | 0 mm | - | - | - |
| 1788556549 | 32.78° C | 66% | 1010 hPa | 0 mm | - | - | - |
| 1788555648 | 33.33° C | 67% | 1009.9 hPa | 0 mm | - | - | - |
* Rain latest hour (hover to see other rain measurements)
** Current wind speed in m/s (hover to see current wind gust speed)